Regional Weather Roundup
Issued by NWS New Orleans/Baton Rouge, LA

Home | Current Version | Previous Version | Text Only | Print | Product List | Glossary On
Versions: 1 2 3 4 5 6 7 8 9 10 11 12 13 14 15 16 17 18 19 20 21 22 23 24 25 26 27 28 29 30 31 32 33 34 35 36 37 38 39 40 41 42 43 44 45 46 47 48 49 50
000
ASUS44 KLIX 232214
RWRLIX
NEW ORLEANS REGIONAL WEATHER ROUNDUP
NATIONAL WEATHER SERVICE NEW ORLEANS LA
500 PM CDT SAT SEP 23 2017

NOTE: "FAIR" INDICATES FEW OR NO CLOUDS BELOW 12,000 FEET WITH NO
      SIGNIFICANT WEATHER AND/OR OBSTRUCTIONS TO VISIBILITY.
      SKY/WX - SKY CONDITION AND SIGNIFICANT WEATHER.
      TMP - AIR TEMPERATURE.     DP    - DEWPOINT TEMPERATURE.
      RH  - RELATIVE HUMIDITY.   PRES  - PRESSURE.
      HI  - HEAT INDEX.          WCI   - WIND CHILL INDEX.

*  THESE STATIONS ARE NOT NWS OR FAA STATIONS AND ARE NOT UNDER
   NWS QUALITY CONTROL.

LAZ038-040-048-061>063-065>067-069-232300-
SOUTHEAST LOUISIANA

CITY           SKY/WX    TMP DP  RH WIND       PRES   REMARKS
N.O. INTL ARPT MOSUNNY   89  67  47 E13       29.90R
N.O. LAKEFRONT NOT AVBL
N.O. DOWNTOWN* NOT AVBL
RESERVE*         N/A     89  68  50 E9G16     29.90S
SLIDELL        NOT AVBL
BATON ROUGE    MOSUNNY   90  66  45 NE9       29.89S
BOOTHVILLE     MOSUNNY   86  73  65 E14       29.90S
BELLE CHASSE   NOT AVBL
BOGALUSA*        N/A     90  65  44 SE7       29.91F
GALLIANO*      MOCLDY    86  70  59 E5        29.89F
NEW ROADS*       N/A     89  68  49 E8        29.89S
GONZALES*        N/A     89  67  47 SE7       29.89S
HAMMOND*       MOSUNNY   84  68  58 S6        29.90S
HOUMA*         MOSUNNY   75  75 100 NW7       29.90S
PORT FOURCHON* CLEAR     86  72  62 E12       29.90S

$$

MSZ070-080>082-232300-
SOUTHERN MISSISSIPPI

CITY           SKY/WX    TMP DP  RH WIND       PRES   REMARKS
MCCOMB         NOT AVBL
GULFPORT       NOT AVBL
BILOXI         SUNNY     87  71  59 S10       29.90S
PASCAGOULA     NOT AVBL

$$

COASTAL OBSERVATIONS
LAKE AND NEARSHORE STATIONS

STATION/POSITION TIME  TEMP    WIND        PRES    WAVE
                       AIR SEA DIR/SP/G            HT/PER
                 (UTC) (F)     (DEG/KT/KT) (MB)    (FT/S)
PASCAGOULA       2148   87     140/  9/ 12 1012.3
WAVELAND YACHT   2148   84 86  150/ 10/ 11 1012.7
GRAND ISLE       2148   86 87   90/ 10/ 13 1012.4
SOUTHWEST PASS   2148           80/ 17/ 19   N/A
NEW CANAL        2148   86 84   70/ 11/ 14 1012.3
SHELL BEACH      2148   85 88   80/ 13/ 16 1012.6

OFFSHORE STATIONS

STATION/POSITION TIME  TEMP    WIND        PRES    WAVE
                       AIR SEA DIR/SP/G            HT/PER
                 (UTC) (F)     (DEG/KT/KT) (MB)    (FT/S)
64 S DAUPHIN ISL 2150   82 84   70/ 14/ 19 1012.3    4/ 6

$$




USA.gov is the U.S. government's official web portal to all federal, state and local government web resources and services.